STARLINK-11535 [DTC] (62595 NORAD) Tracking and Keplerian Element Data

This shows tracking and keplerian element data for the satellite.

Feedback or suggestion? Click here.




ElementValue
Catalog62595
NameSTARLINK-11535 [DTC]
Epoch Orbit440
Epoch Day34.83335648
Epoch Year2025
RAAN12.1711
Inclination43.0053
Eccentricity0.0001447
Argument of Perigee253.1833
Mean Anonmoly126.6452
Mean Motion15.82036557
Decay Rate0.0026376
L11 62595U 25008J 25034.83335648 .00263760 00000+0 12162-2 0 9993
L22 62595 43.0053 12.1711 0001447 253.1833 126.6452 15.82036557 4404



Live tracking and technical data element details for STARLINK-11535 [DTC] (NORAD 62595). STARLINK-11535 [DTC] can be tracked NOW for your location showing map with azimuth and elevation plus other details from your city location.







IsCatalogInMostPopularTable: catalog: 62595, numindb: 17
Update: records affected: 1



GetName: 62595 STARLINK-11535 [DTC]

Hit Count: updated at: Mon, 19 May 2025 03:02:24 GMT